[[{"header":{"parameterUnit":"m.s-1","parameterCategory":1,"la1":30.2992,"la2":30.254,"lo1":-89.0895,"lo2":-89.0443,"dy":0.0025,"dx":0.0025,"nx":19,"ny":19,"refTime":"2026-03-21T09:00:00:Z","depth":0,"parameterNumber":2,"parameterNumberName":"U-component_of_WINDS"},"data":[0,0,0,2.9139,2.9141,2.9257,2.9258,2.9403,2.9404,0,0,0,0,0,0,0,0,0,0,0,2.9101,2.9102,2.9138,2.9141,2.9257,2.9258,2.9403,2.9404,0,0,0,0,0,0,0,0,0,0,0,2.9101,2.9102,2.9103,2.9142,2.9257,2.9258,2.9402,2.9316,0,0,0,0,0,0,0,0,0,0,2.9204,2.9167,2.9102,2.9103,2.9142,2.9257,2.9258,2.9312,2.9321,2.9348,0,2.9371,0,2.939,2.9414,2.9414,0,0,0,2.9143,2.9159,2.9193,2.9103,2.9143,2.9257,2.9206,2.9317,2.9328,2.9361,2.9373,2.9379,2.9392,2.9414,2.9415,2.9561,2.9562,0,0,2.9137,2.9121,2.9185,2.9199,2.9181,2.9202,2.9209,2.9324,2.9337,2.9374,2.9382,2.9395,2.9415,2.9417,2.9561,2.9561,0,0,0,2.9117,2.9117,2.9148,2.9193,2.9214,2.9205,2.9214,2.9332,2.9343,2.9384,2.9396,2.9416,2.9418,2.956,2.9561,2.9573,0,0,0,2.9113,2.9105,2.9145,2.9136,2.9212,2.9274,2.9219,2.9335,2.9348,2.9396,2.9416,2.9419,2.9559,2.9561,2.9571,2.9582,0,0,0,2.9095,2.9103,2.9119,2.9135,2.9184,2.9273,2.9291,2.9338,2.9356,2.9414,2.942,2.9559,2.956,2.957,2.9579,2.9614,0,0,0,2.9071,2.9129,2.9119,2.9188,2.9183,2.9279,2.929,2.9363,2.9415,2.9417,2.956,2.9561,2.9569,2.9578,2.9613,2.9641,2.9651,0,0,2.9135,2.9136,2.9178,2.9173,2.9266,2.9263,2.9359,2.9422,2.9442,2.952,2.9524,2.9572,2.9579,2.9614,2.9715,2.9723,0,0,0,2.9194,2.9224,2.9252,2.93,2.9348,2.939,2.944,2.9463,2.953,2.9479,2.9595,2.96,2.9621,2.9635,2.9642,2.9661,2.9567,2.9567,2.9567,2.9262,2.9284,2.9356,2.9391,2.9438,2.9487,2.9527,2.9566,2.9576,2.9603,2.9626,2.9685,2.9701,2.9706,2.9726,2.9644,2.9644,2.9644,2.9644,2.9358,2.9404,2.9415,2.9487,2.951,2.9572,2.9622,2.9626,2.9687,2.967,2.969,2.9668,2.9714,2.9732,2.9645,2.9645,2.9645,2.9644,2.9644,2.9405,2.9431,2.9457,2.9527,2.9579,2.9614,2.9671,2.9691,2.971,2.9729,2.9755,2.9755,2.9756,2.974,2.974,2.9741,2.9741,2.9741,2.9741,2.9443,2.9473,2.9518,2.9573,2.9606,2.9651,2.9701,2.9734,2.9775,2.9785,2.9785,2.9791,2.9715,2.9695,2.9744,2.9744,2.9743,2.9743,2.9743,2.9531,2.9514,2.9584,2.9617,2.9683,2.9732,2.9756,2.9821,2.9851,2.9878,2.988,2.9821,2.9823,2.9818,2.9801,2.9876,2.9876,2.9876,2.9876,2.957,2.9573,2.9648,2.9699,2.975,2.9779,2.9857,2.9896,2.9934,2.9953,2.9946,2.9925,2.9919,2.9925,2.9918,2.9903,3.0001,3.0001,3.0001,2.9625,2.9634,2.9696,2.9732,2.9785,2.983,2.9904,2.9961,3.0001,3.0007,2.9969,2.9964,2.9931,2.992,2.9925,2.9912,2.9885,0,0]},{"header":{"parameterUnit":"m.s-1","parameterCategory":1,"la1":30.2992,"la2":30.254,"lo1":-89.0895,"lo2":-89.0443,"dy":0.0025,"dx":0.0025,"nx":19,"ny":19,"refTime":"2026-03-21T09:00:00:Z","depth":0,"parameterNumber":3,"parameterNumberName":"V-component_of_WINDS"},"data":[0,0,0,2.3583,2.3583,2.3575,2.3575,2.3575,2.3575,0,0,0,0,0,0,0,0,0,0,0,2.3591,2.3591,2.3583,2.3583,2.3575,2.3575,2.3575,2.3575,0,0,0,0,0,0,0,0,0,0,0,2.3591,2.3591,2.3592,2.3583,2.3575,2.3575,2.3575,2.3578,0,0,0,0,0,0,0,0,0,0,2.3583,2.3597,2.3591,2.3592,2.3583,2.3575,2.3575,2.3577,2.3577,2.3583,0,2.359,0,2.3583,2.3576,2.3576,0,0,0,2.3578,2.3597,2.3589,2.3592,2.3583,2.3575,2.3577,2.3577,2.3577,2.3583,2.359,2.359,2.3583,2.3576,2.3576,2.3625,2.3625,0,0,2.3579,2.3593,2.359,2.359,2.3591,2.3577,2.3577,2.3577,2.3585,2.359,2.3589,2.3583,2.3576,2.3576,2.3624,2.3625,0,0,0,2.3583,2.3594,2.3586,2.359,2.3588,2.3577,2.3577,2.3585,2.3582,2.3589,2.3583,2.3576,2.3576,2.3624,2.3625,2.366,0,0,0,2.3583,2.3596,2.3586,2.3595,2.3588,2.3586,2.3585,2.3582,2.3581,2.3583,2.3576,2.3577,2.3623,2.3624,2.3658,2.3675,0,0,0,2.359,2.3597,2.3598,2.3596,2.3593,2.3586,2.3582,2.3581,2.3577,2.3576,2.3577,2.3623,2.3624,2.3656,2.3672,2.3692,0,0,0,2.3601,2.363,2.3599,2.3628,2.3593,2.3608,2.3582,2.3592,2.3596,2.3576,2.3624,2.3625,2.3656,2.367,2.369,2.3712,2.3722,0,0,2.3645,2.3635,2.3652,2.3624,2.3648,2.3608,2.3638,2.3627,2.3614,2.3622,2.3623,2.3659,2.3672,2.3692,2.3774,2.3783,0,0,0,2.3671,2.3682,2.3686,2.3689,2.3682,2.3677,2.366,2.3656,2.3663,2.3621,2.3671,2.3678,2.3689,2.3699,2.3706,2.3715,2.363,2.3629,2.3629,2.3754,2.3736,2.3761,2.3742,2.3746,2.3728,2.373,2.3722,2.3702,2.3714,2.3716,2.3769,2.3781,2.3786,2.3795,2.3726,2.3726,2.3726,2.3726,2.3817,2.3831,2.3804,2.3819,2.38,2.3812,2.3797,2.3782,2.3791,2.3765,2.3774,2.3748,2.3795,2.3803,2.3729,2.3728,2.3728,2.3728,2.3728,2.387,2.3874,2.3868,2.3872,2.3877,2.3856,2.3866,2.3848,2.383,2.3839,2.384,2.3839,2.3837,2.3841,2.3841,2.3841,2.3841,2.3841,2.3842,2.3927,2.392,2.3931,2.3925,2.3925,2.3923,2.3906,2.3905,2.39,2.3886,2.3886,2.3865,2.3803,2.3788,2.3844,2.3844,2.3843,2.3843,2.3843,2.3999,2.398,2.3996,2.3996,2.3988,2.3994,2.3971,2.3972,2.3969,2.3974,2.3951,2.3909,2.3898,2.3892,2.3879,2.3955,2.3955,2.3955,2.3955,2.4043,2.4036,2.4048,2.405,2.4049,2.4029,2.4049,2.4036,2.402,2.4017,2.4003,2.3985,2.398,2.3972,2.3964,2.3952,2.4045,2.4045,2.4045,2.4086,2.4078,2.4098,2.4082,2.4074,2.4068,2.4086,2.4089,2.4066,2.4048,2.4014,2.401,2.3981,2.3972,2.3953,2.3942,2.392,0,0]}]]